www.pogodaiklimat.ru

Погода и климат >> Архив погоды >> ОАЭ >> Fujairah


ПОГОДА в Fujairah

  • Прогноз погоды в Fujairah
  • Монитор погоды в Fujairah
  • Климат города

АРХИВ ПОГОДЫ в Fujairah

Время (UTC), дата Ветер
(напр.,м/с)
 
Видим.   Явления Облачность Т
(С)
Тd
(С)
f
(%)
Тe
(С)
Тes
(С)
Комфортность P
(гПа)
Po
(гПа)
Тmin
(С)
Tmax
(С)
R
(мм)
R24
(мм)
S
(см)
18 12.07 ЮВ 2 5000 м мгла ясно +33.2 +29.9 83 +60 +60 опасность
перегрева
993.3 988.2 +37.8
21 12.07 ЮЗ 2 5000 м мгла ясно +33.0 +29.7 83 +59 +59 опасность
перегрева
992.2 987.1
00 13.07 СВ 3 4000 м мгла 4/4 330 м
[Sc]
+32.6 +30.0 86 +59 +59 опасность
перегрева
993.2 993.0
03 13.07 ЮВ 2 3500 м мгла ясно +33.0 +29.3 81 +58 +60 опасность
перегрева
994.1 989.0
06 13.07 В 5 5000 м мгла ясно +36.2 +28.9 66 +59 +69 опасность
перегрева
994.6 995.0 +32.6
09 13.07 В 4 6000 м пыль ясно +36.4 +26.0 55 +52 +66 опасность
перегрева
994.4 989.4
12 13.07 В 4 6000 м мгла ясно +35.4 +28.5 68 +58 +63 опасность
перегрева
993.1 993.0
15 13.07 ЮВ 3 5000 м мгла ясно +33.5 +28.4 75 +55 +55 опасность
перегрева
993.2 993.0
18 13.07 Ю 2 5000 м мгла ясно +33.1 +28.8 78 +56 +56 опасность
перегрева
994.5 995.0 +38.7
21 13.07 Ю 2 5000 м мгла ясно +33.0 +29.1 80 994.2 994.7
00 14.07 В 3 4000 м мгла 3/3 540 м
[Sc]
+32.5 +29.5 84 +57 +57 опасность
перегрева
993.9 994.0
03 14.07 В 2 3500 м мгла 3/3 360 м
[Sc]
+32.8 +28.7 79 +55 +57 опасность
перегрева
995.4 995.0
06 14.07 В 5 5000 м мгла 1/1 600 м
[Sc]
+34.3 +28.7 73 +57 +66 опасность
перегрева
996.2 996.0 +32.2
09 14.07 В 5 6000 м мгла ясно +35.3 +26.9 62 +53 +64 опасность
перегрева
995.3 995.0
12 14.07 ЮВ 4 6000 м мгла ясно +35.6 +25.5 56 +50 +56 опасность
перегрева
993.8 994.0
15 14.07 ЮВ 2 6000 м мгла 6/0
[Ac cuf]
+34.1 +27.1 67 +52 +52 опасность
перегрева
993.7 994.0
18 14.07 В 2 6000 м мгла ясно +32.9 +28.3 77 +54 +54 опасность
перегрева
995.5 996.0 +36.5
21 14.07 Ю 2 6000 м мгла ясно +32.6 +27.8 76 +53 +53 опасность
перегрева
993.7 994.0
00 15.07 ЮВ 2 6000 м мгла ясно +31.8 +28.6 83 +54 +54 опасность
перегрева
993.5 994.0
03 15.07 Ю 2 4000 м мгла ясно +32.1 +29.0 84 +56 +58 опасность
перегрева
995.2 990.1
06 15.07 В 4 5000 м мгла 3/3 600 м
[Sc]
+34.5 +28.6 72 +57 +65 опасность
перегрева
996.0 996.0 +31.5
09 15.07 В 5 5000 м мгла 3/3 600 м
[Sc Ci fib]
+35.0 +28.1 68 +56 +65 опасность
перегрева
994.7 989.6
12 15.07 В 4 6000 м мгла ясно +34.8 +27.0 64 +53 +58 опасность
перегрева
993.0 993.0
15 15.07 ЮВ 3 6000 м мгла ясно +34.3 +26.1 62 +50 +50 опасность
перегрева
992.9 987.8
18 15.07 ЮВ 2 6000 м мгла ясно +33.9 +25.6 62 +49 +49 опасность
перегрева
993.5 988.4 +36.2
21 15.07 ЮЗ 1 7000 м мгла ясно +33.5 +23.0 54 +44 +44 опасность
перегрева
992.7 987.6
00 16.07 СВ 1 6000 м мгла ясно +32.4 +26.5 71 +49 +49 опасность
перегрева
992.2 992.0
03 16.07 СЗ 1 5000 м мгла 1/0
[Ac trans]
+33.0 +25.8 66 +48 +51 опасность
перегрева
994.2 994.0
06 16.07 В 3 5000 м мгла ясно +35.7 +27.6 63 +55 +70 опасность
перегрева
994.3 994.0 +31.2
09 16.07 В 5 5000 м мгла ясно +35.7 +28.2 65 +57 +69 опасность
перегрева
993.5 994.0
12 16.07 В 5 5000 м мгла ясно +34.8 +29.0 72 +58 +63 опасность
перегрева
992.4 992.0
15 16.07 Ю 4 5000 м мгла 1/0
[Ci fib]
+33.8 +28.5 74 +56 +56 опасность
перегрева
992.8 993.0
18 16.07 ЮВ 2 5000 м мгла ясно +33.1 +28.3 76 +55 +55 опасность
перегрева
994.4 989.3 +36.6
21 16.07 Ю 2 5000 м мгла ясно +32.6 +27.6 75 +52 +52 опасность
перегрева
993.3 988.2
00 17.07 СВ 4 5000 м мгла ясно +32.7 +28.4 78 +54 +54 опасность
перегрева
993.9 994.0
03 17.07 ЮВ 3 3000 м мгла 5/5 400 м
[Sc]
+32.4 +29.0 82 +56 +57 опасность
перегрева
996.0 990.9
06 17.07 ЮВ 6 5000 м мгла 5/5 450 м
[Sc]
+33.9 +28.5 74 +56 +60 опасность
перегрева
996.3 996.0 +32.0
09 17.07 ЮВ 6 6000 м мгла 3/3 750 м
[Sc]
+35.3 +28.6 68 +57 +64 опасность
перегрева
995.3 995.0
12 17.07 В 5 6000 м мгла 1/1 1050 м
[Sc]
+34.0 +28.2 72 +55 +60 опасность
перегрева
993.8 994.0
15 17.07 ЮВ 4 5000 м мгла ясно +32.7 +28.4 78 +54 +54 опасность
перегрева
993.9 994.0
18 17.07 ЮВ 3 4000 м мгла ясно +31.6 +28.8 85 +54 +54 опасность
перегрева
995.2 995.0 +35.9
21 17.07 Ю 2 4000 м мгла ясно +31.1 +28.9 88 +54 +54 опасность
перегрева
995.3 995.0
00 18.07 Ю 3 4000 м мгла ясно +30.5 +27.9 86 +50 +50 опасность
перегрева
995.0 995.0
03 18.07 С 3 7000 м мгла 4/0
[Ci fib]
+33.2 +25.5 64 +48 +50 опасность
перегрева
997.1 997.0
06 18.07 В 5 5000 м мгла 5/5 600 м
[St As op]
+34.1 +30.4 81 +62 +66 опасность
перегрева
998.3 998.0
09 18.07 В 5 5000 м мгла 3/3 600 м
[Sc]
+34.8 +28.1 68 +56 +63 опасность
перегрева
997.4 992.3
12 18.07 В 5 6000 м мгла 1/1 750 м
[Sc]
+34.4 +27.9 69 +55 +59 опасность
перегрева
996.1 996.0
15 18.07 ЮВ 4 6000 м мгла 1/1 750 м
[Sc]
+32.9 +28.1 76 +54 +54 опасность
перегрева
997.0 997.0
18 18.07 Ю 3 5000 м мгла ясно +32.5 +28.0 77 +53 +53 опасность
перегрева
997.9 998.0 +35.7
21 18.07 Ю 2 5000 м мгла ясно +31.8 +27.9 80 +52 +52 опасность
перегрева
997.6 992.5
00 19.07 ЮВ 1 5000 м мгла ясно +31.4 +28.4 84 +53 +53 опасность
перегрева
996.8 997.0
03 19.07 СВ 3 5000 м мгла ясно +31.8 +27.7 79 +51 +53 опасность
перегрева
998.7 993.6
06 19.07 В 5 5000 м мгла ясно +34.3 +27.4 67 +53 +63 опасность
перегрева
995.7 996.0 +31.1
09 19.07 В 5 6000 м мгла 1/1 750 м
[Sc]
+34.8 +28.5 70 +57 +67 опасность
перегрева
997.8 998.0
12 19.07 В 4 6000 м мгла ясно +34.6 +27.7 67 +54 +60 опасность
перегрева
996.6 997.0

 

Местоположение метеостанции Fujairah (ОАЭ): широта 25.10 долгота 56.33 высота над уровнем моря 28 м.

В архиве по умолчанию представлена погода в Fujairah за последнюю неделю. Архивные данные за месяц целиком и за предыдущие месяцы, начиная с января 2011 года, Вы можете получить, выбрав интересующий диапазон дат из раскрывающегося списка и нажав кнопку "Ввод!".


*Определитесь, кто Вы:
робот инопланетянин человек

Внимание! Время в таблицах - всемирное. Для получения местного времени необходимо прибавить поправку, которая в Fujairah равна 4 ч.

Смотрите также архив погоды в соседних городах и на ближайших метеорологических станциях:

Погода в Diba (Оман) (58 км)
Погода в Ras Al Khaimah Int Airport (ОАЭ) (70 км)
Погода в Sohar Majis (Оман) (76 км)
Погода в Sharjah (ОАЭ) (85 км)
Погода в Dubai (ОАЭ) (102 км)
Погода в Buraimi (Оман) (112 км)
Погода в Al Ain Int Airport (ОАЭ) (118 км)
Погода в Khasab Airport (Оман) (119 км)
Погода в Dubai Al Maktoum Int Airport (ОАЭ) (120 км)
Погода в Khasab (Оман) (124 км)

Пояснения к столбцам:

Ветер - указаны скорость ветра в м/с - средняя за 10 мин, порывы в срок и между сроками (в фигурных скобках) и направление, откуда дует ветер: С - северный, СВ - северо-восточный, В - восточный, ЮВ - юго-восточный, Ю - южный, ЮЗ - юго-западный, З - западный, СЗ - северо-западный.
Видимость - горизонтальная дальность видимости в метрах или километрах. При видимости от 1 до 10 км при отсутствии осадков обычно наблюдается дымка, при ухудшении видимости до 1 км и менее - туман. В сухую погоду видимость может ухудшаться дымом, пылью или мглою.
Явления - указаны атмосферные явления, наблюдавшиеся в срок или в последний час перед сроком; фигурными скобками обозначены явления, наблюдавшиеся между сроками (за 1-3 часа до срока); квадратными скобками обозначены град или гололедные отложения с указанием их диаметра в мм.
Облачность - указаны через наклонную черту общая и нижняя облачность в баллах и высота нижней границы облаков в метрах; квадратными скобками обозначены формы облаков: Ci - перистые, Cs - перисто-слоистые, Cc - перисто-кучевые, Ac - высококучевые, As - высокослоистые, Sc - слоисто-кучевые, Ns - слоисто-дождевые, Cu - кучевые, Cb - кучево-дождевые. Подробнее классификацию облаков см. в Атласе облаков (PDF).
T - Температура воздуха - температура, измеренная на высоте 2 м над землей.
Td - Температура точки росы - температура, при понижении до которой содержащийся в воздухе водяной пар достигнет насыщения.
f - Относительная влажность воздуха - влажноcть воздуха, измеренная на высоте 2 м над землей.
Te - Эффективная температура - температура, которую ощущает одетый по сезону человек в тени. Характеристика душности погоды. При расчете учитывается влияние влажности воздуха и скорости ветра на теплоощущения человека.
Tes - Эффективная температура на солнце - температура, которую ощущает человек, с поправкой на солнечный нагрев. Характеристика знойности погоды. Зависит от высоты солнца над горизонтом, облачности и скорости ветра. Ночью, в пасмурную погоду, а также при ветре 12 м/с и более поправка равна нулю.
P - Атмосферное давление - приведенное к уровню моря атмосферное давление.
Po - Атмосферное давление - измеренное на уровне метеостанции атмосферное давление.
Tmin - Минимальная температура - минимум температуры воздуха на высоте 2 м над землей.
Tmax - Максимальная температура - максимум температуры воздуха на высоте 2 м над землей.
R - Количество осадков - Количество выпавших осадков за период времени, мм. При наведении курсора мыши на число - период времени, за который выпало указанное количество осадков.
R24 - Количество осадков - Количество выпавших осадков за 24 часа, мм.
S - Снежный покров - Высота снежного покрова, см. При наведении курсора мыши на число - состояние снежного покрова и степень покрытия местности в баллах.